Retour au catalogue

LDPE-3A DEB

ActifGEO
NORAD 55267·DEBRIS·🇺🇸 United States

Lancé Jan 15, 2023 depuis Cape Canaveral Space Force Station

Loading…

TLE

FraisSource: Space-Track

Époque: Sep 13, 2026, 21:39 UTC

1 55267U 23008E   26256.90277326 -.00000129  00000-0  00000-0 0  9998
2 55267   3.3735  76.9842 0003858 190.0939 170.3059  1.02218218  8805

Suivez LDPE-3A DEB en temps réel avec AllMySat

Download on the App Store